TimeCDT,TemperatureF,Dew PointF,Humidity,Sea Level PressureIn,VisibilityMPH,Wind Direction,Wind SpeedMPH,Gust SpeedMPH,PrecipitationIn,Events,Conditions,WindDirDegrees,DateUTC
12:13 AM,24.8,21.2,86,30.31,7.0,Calm,Calm,-,N/A,,Clear,0,2012-10-29 05:13:00
12:33 AM,24.8,21.2,86,30.32,10.0,Calm,Calm,-,N/A,,Clear,0,2012-10-29 05:33:00
12:53 AM,24.8,21.2,86,30.31,7.0,Calm,Calm,-,N/A,,Clear,0,2012-10-29 05:53:00
1:13 AM,23.0,19.4,86,30.32,7.0,Calm,Calm,-,N/A,,Clear,0,2012-10-29 06:13:00
1:33 AM,23.0,19.4,86,30.32,7.0,Calm,Calm,-,N/A,,Scattered Clouds,0,2012-10-29 06:33:00
1:53 AM,23.0,21.2,93,30.32,7.0,Calm,Calm,-,N/A,,Mostly Cloudy,0,2012-10-29 06:53:00
2:13 AM,24.8,21.2,86,30.32,10.0,Calm,Calm,-,N/A,,Overcast,0,2012-10-29 07:13:00
2:33 AM,24.8,21.2,86,30.32,10.0,Calm,Calm,-,N/A,,Overcast,0,2012-10-29 07:33:00
2:53 AM,26.6,23.0,86,30.32,10.0,Calm,Calm,-,N/A,,Overcast,0,2012-10-29 07:53:00
3:13 AM,26.6,23.0,86,30.32,10.0,Calm,Calm,-,N/A,,Overcast,0,2012-10-29 08:13:00
3:33 AM,26.6,24.8,93,30.33,10.0,Calm,Calm,-,N/A,,Mostly Cloudy,0,2012-10-29 08:33:00
3:53 AM,28.4,24.8,86,30.32,10.0,Calm,Calm,-,N/A,,Mostly Cloudy,0,2012-10-29 08:53:00
4:13 AM,26.6,24.8,93,30.32,10.0,Calm,Calm,-,N/A,,Mostly Cloudy,0,2012-10-29 09:13:00
4:33 AM,26.6,24.8,93,30.32,10.0,Calm,Calm,-,N/A,,Mostly Cloudy,0,2012-10-29 09:33:00
4:53 AM,26.6,24.8,93,30.32,10.0,Calm,Calm,-,N/A,,Scattered Clouds,0,2012-10-29 09:53:00
5:13 AM,26.6,24.8,93,30.32,10.0,Calm,Calm,-,N/A,,Clear,0,2012-10-29 10:13:00
5:33 AM,26.6,21.2,80,30.32,7.0,Calm,Calm,-,N/A,,Clear,0,2012-10-29 10:33:00
5:53 AM,26.6,24.8,93,30.32,7.0,Calm,Calm,-,N/A,,Clear,0,2012-10-29 10:53:00
6:13 AM,26.6,23.0,86,30.32,7.0,Calm,Calm,-,N/A,,Mostly Cloudy,0,2012-10-29 11:13:00
6:53 AM,26.6,24.8,93,30.32,7.0,Calm,Calm,-,N/A,,Overcast,0,2012-10-29 11:53:00
7:13 AM,26.6,24.8,93,30.32,7.0,Calm,Calm,-,N/A,,Overcast,0,2012-10-29 12:13:00
7:33 AM,28.4,26.6,93,30.33,7.0,Calm,Calm,-,N/A,,Overcast,0,2012-10-29 12:33:00
7:53 AM,28.4,24.8,86,30.33,7.0,Calm,Calm,-,N/A,,Overcast,0,2012-10-29 12:53:00
8:13 AM,28.4,24.8,86,30.34,10.0,Calm,Calm,-,N/A,,Scattered Clouds,0,2012-10-29 13:13:00
8:33 AM,28.4,26.6,93,30.34,7.0,Calm,Calm,-,N/A,,Scattered Clouds,0,2012-10-29 13:33:00
8:53 AM,28.4,26.6,93,30.35,7.0,Calm,Calm,-,N/A,,Scattered Clouds,0,2012-10-29 13:53:00
9:13 AM,30.2,26.6,86,30.35,10.0,Calm,Calm,-,N/A,,Scattered Clouds,0,2012-10-29 14:13:00
9:33 AM,30.2,28.4,93,30.34,7.0,Calm,Calm,-,N/A,,Clear,0,2012-10-29 14:33:00
9:53 AM,33.8,30.2,87,30.34,10.0,Calm,Calm,-,N/A,,Clear,0,2012-10-29 14:53:00
10:13 AM,35.6,32.0,87,30.34,10.0,ENE,3.5,-,N/A,,Clear,60,2012-10-29 15:13:00
10:33 AM,37.4,30.2,75,30.34,10.0,Calm,Calm,-,N/A,,Scattered Clouds,0,2012-10-29 15:33:00
10:53 AM,37.4,30.2,75,30.35,10.0,East,4.6,-,N/A,,Scattered Clouds,80,2012-10-29 15:53:00
11:13 AM,39.2,28.4,65,30.35,10.0,East,3.5,-,N/A,,Clear,80,2012-10-29 16:13:00
11:33 AM,41.0,28.4,61,30.34,10.0,ESE,5.8,-,N/A,,Scattered Clouds,110,2012-10-29 16:33:00
11:53 AM,41.0,26.6,57,30.33,10.0,East,6.9,-,N/A,,Scattered Clouds,100,2012-10-29 16:53:00
12:13 PM,42.8,24.8,49,30.33,10.0,SSE,6.9,-,N/A,,Scattered Clouds,150,2012-10-29 17:13:00
12:53 PM,44.6,24.8,46,30.33,10.0,East,5.8,-,N/A,,Clear,90,2012-10-29 17:53:00
1:34 PM,44.6,21.2,39,30.32,10.0,SE,6.9,-,N/A,,Clear,140,2012-10-29 18:34:00
1:54 PM,44.6,23.0,43,30.32,10.0,East,4.6,-,N/A,,Clear,90,2012-10-29 18:54:00
2:13 PM,44.6,21.2,39,30.32,10.0,East,8.1,-,N/A,,Clear,90,2012-10-29 19:13:00
2:33 PM,44.6,23.0,43,30.31,10.0,East,6.9,-,N/A,,Clear,90,2012-10-29 19:33:00
2:53 PM,44.6,21.2,39,30.31,10.0,East,5.8,-,N/A,,Clear,90,2012-10-29 19:53:00
3:13 PM,44.6,21.2,39,30.31,10.0,East,8.1,-,N/A,,Clear,100,2012-10-29 20:13:00
3:33 PM,44.6,23.0,43,30.31,10.0,East,8.1,-,N/A,,Clear,100,2012-10-29 20:33:00
3:53 PM,42.8,21.2,42,30.31,10.0,East,6.9,-,N/A,,Clear,80,2012-10-29 20:53:00
4:13 PM,42.8,21.2,42,30.31,10.0,East,5.8,-,N/A,,Clear,100,2012-10-29 21:13:00
4:33 PM,42.8,23.0,46,30.31,10.0,East,6.9,-,N/A,,Clear,80,2012-10-29 21:33:00
4:53 PM,41.0,23.0,49,30.31,10.0,East,6.9,-,N/A,,Clear,80,2012-10-29 21:53:00
5:13 PM,39.2,21.2,49,30.31,10.0,ENE,5.8,-,N/A,,Clear,60,2012-10-29 22:13:00
5:33 PM,37.4,23.0,56,30.31,10.0,Calm,Calm,-,N/A,,Clear,0,2012-10-29 22:33:00
5:53 PM,35.6,26.6,70,30.31,10.0,ENE,3.5,-,N/A,,Clear,60,2012-10-29 22:53:00
6:13 PM,33.8,26.6,75,30.31,10.0,NE,5.8,-,N/A,,Clear,50,2012-10-29 23:13:00
6:33 PM,33.8,28.4,81,30.31,10.0,NE,5.8,-,N/A,,Clear,40,2012-10-29 23:33:00
6:53 PM,33.8,28.4,81,30.31,10.0,NE,4.6,-,N/A,,Clear,50,2012-10-29 23:53:00
7:13 PM,33.8,26.6,75,30.31,10.0,Calm,Calm,-,N/A,,Clear,0,2012-10-30 00:13:00
7:34 PM,33.8,26.6,75,30.31,10.0,NE,3.5,-,N/A,,Clear,40,2012-10-30 00:34:00
7:53 PM,32.0,26.6,80,30.31,10.0,Calm,Calm,-,N/A,,Clear,0,2012-10-30 00:53:00
8:13 PM,28.4,26.6,93,30.31,10.0,Calm,Calm,-,N/A,,Clear,0,2012-10-30 01:13:00
8:33 PM,28.4,24.8,86,30.31,10.0,Calm,Calm,-,N/A,,Clear,0,2012-10-30 01:33:00
8:53 PM,26.6,24.8,93,30.31,10.0,NNE,4.6,-,N/A,,Clear,20,2012-10-30 01:53:00
9:13 PM,30.2,28.4,93,30.30,10.0,Calm,Calm,-,N/A,,Clear,0,2012-10-30 02:13:00
9:33 PM,28.4,24.8,86,30.30,10.0,Calm,Calm,-,N/A,,Clear,0,2012-10-30 02:33:00
9:53 PM,26.6,24.8,93,30.30,10.0,Calm,Calm,-,N/A,,Clear,0,2012-10-30 02:53:00
10:13 PM,26.6,23.0,86,30.30,10.0,Calm,Calm,-,N/A,,Clear,0,2012-10-30 03:13:00
10:33 PM,24.8,21.2,86,30.29,10.0,Calm,Calm,-,N/A,,Clear,0,2012-10-30 03:33:00
10:53 PM,24.8,21.2,86,30.29,10.0,Calm,Calm,-,N/A,,Clear,0,2012-10-30 03:53:00
11:14 PM,24.8,21.2,86,30.29,10.0,Calm,Calm,-,N/A,,Clear,0,2012-10-30 04:14:00
11:33 PM,24.8,21.2,86,30.29,10.0,Calm,Calm,-,N/A,,Clear,0,2012-10-30 04:33:00
11:53 PM,24.8,21.2,86,30.29,10.0,Calm,Calm,-,N/A,,Clear,0,2012-10-30 04:53:00